Location: Hilde
(52.9479°N, 6.4449°E)
Time: 13:41:48
(UTC+00:00)

Cosmos 1937 Rocket - Pass Details

Date: 15 May 2026
Orbit: 743 x 774 km, 74.0° (Epoch: 11 June)

Event Time Altitude Azimuth Distance (km) Brightness Sun altitude
Rises 22:19:52 0° 334° (NNW) 3,209 8.5 -16.4°
Reaches altitude 10° 22:22:15 10° 336° (NNW) 2,277 7.3 -16.5°
Maximum altitude 22:27:24 79° 63° (ENE) 766 3.5 -16.7°
Enters shadow 22:30:10 28° 147° (SSE) 1,381 4.3 -16.8°
